User: anonymous
Location: Bangkok
(13.7500°N, 100.5170°E)
Time: 20:44:00
(UTC+07:00)
Language:

SPOT 1/Viking Rocket - Orbit

View from above orbital plane
View from above orbital plane
View from above satellite
View from above satellite

Ground track
Ground track

The orbit data is extracted from the following two-line orbital elements,

1 16615U 86019C   14106.18710557  .00000187  00000-0  87958-4 0  3642
2 16615 098.7646 156.7577 0011795 201.2002 225.9401 14.31236110473828
Epoch (UTC): 16 April 2014 04:29:25
Eccentricity: 0.0011795
inclination: 98.7646°
perigee height: 779 km
apogee height: 796 km
right ascension of ascending node: 156.7577°
argument of perigee: 201.2002°
revolutions per day: 14.31236110
mean anomaly at epoch: 225.9401°
orbit number at epoch: 47382

The dashed part of the orbit path shows where the satellite is in the earth's shadow,  

DLR